Location: Del Oro Observatory
(38.3044°N, 104.8119°W)
Time: 19:30:10
(UTC-06:00)

Iridium 35 - Visible Passes

Search period start: 25 August 2016 00:00
Search period end: 04 September 2016 00:00
Orbit: 776 x 779 km, 86.4° (Epoch: 25 August)

Date Brightness Start Highest point End Pass type
(mag) Time Alt. Az. Time Alt. Az. Time Alt. Az.
25 Aug 6.9 20:35:51 10° NNW 20:40:30 33° W 20:45:07 10° SSW visible
26 Aug 5.6 20:01:57 10° N 20:07:06 64° W 20:12:15 10° S visible
27 Aug 8.2 21:11:37 10° NW 21:13:38 12° WNW 21:15:39 10° W visible
28 Aug 7.6 20:36:25 10° NNW 20:40:27 23° W 20:44:29 10° SW visible
29 Aug 6.5 20:02:14 10° NNW 20:07:09 43° W 20:12:03 10° SSW visible
31 Aug 8.1 20:37:18 10° NW 20:40:22 16° W 20:43:27 10° WSW visible
01 Sep 7.3 20:02:40 10° NNW 20:07:08 29° W 20:11:35 10° SW visible
03 Sep 8.7 20:39:15 10° WNW 20:40:14 11° WNW 20:41:14 10° W visible
